Simultaneous Nadir Overpasses (SNOs) Predictions

Prediction of SNOs between AQUA and METOP-B Satellite Orbit:

Table of predicted SNOs for the next 14.0 days since TLE Epoch: 5/9/2020
Index Date (AQUA) Time (AQUA) Lat,Lon (AQUA) SZA (AQUA ) Date (METOP-B) Time (METOP-B) Lat,Lon (METOP-B) SZA (METOP-B ) Distance(km) Time Diff (sec)
1 05/11/2020 04:35:52 73.78, 105.42 55.76 05/11/2020 04:35:18 73.81, 105.40 55.79 3.49 34
2 05/11/2020 05:25:19 -73.87, -87.13 124.16 05/11/2020 05:25:59 -73.85, -87.18 124.18 2.57 40
3 05/14/2020 00:10:06 73.80, 171.81 55.09 05/14/2020 00:09:40 73.83, 171.85 55.11 3.04 26
4 05/14/2020 00:59:33 -73.88, -20.72 124.84 05/14/2020 01:00:21 -73.87, -20.72 124.86 1.17 48
5 05/16/2020 18:54:42 -73.33, 71.62 126.06 05/16/2020 18:53:33 -73.27, 69.63 126.06 63.94 69
6 05/16/2020 19:44:19 73.83,-121.82 54.46 05/16/2020 19:44:01 73.84,-121.71 54.48 3.49 18
7 05/16/2020 20:33:46 -73.90, 45.67 125.47 05/16/2020 20:34:42 -73.89, 45.73 125.49 2.32 56
8 05/19/2020 14:29:01 -73.62, 137.45 126.37 05/19/2020 14:27:49 -73.59, 136.75 126.37 22.31 72
9 05/19/2020 15:18:32 73.82, -55.34 53.84 05/19/2020 15:18:24 73.81, -55.39 53.83 2.08 8
10 05/19/2020 16:07:59 -73.88, 112.17 126.11 05/19/2020 16:09:04 -73.91, 112.18 126.08 3.45 65
11 05/22/2020 10:03:17 -73.76,-156.40 126.78 05/22/2020 10:02:08 -73.75,-156.45 126.78 2.04 69
12 05/22/2020 10:52:45 73.81, 11.13 53.26 05/22/2020 10:52:46 73.82, 11.04 53.28 2.90 1




NCC Satellite Simultaneous Nadir Overpasses (SNOs) Prediction Service
